Wind_Speed
10 9 6 5 4 4 4 3 2 1 1 0 1 2 1 3 4 4 5 5 6 6 7 7 7 7 7 7 6 6 6 6 7 6 6 6 6 6 5 5 5 4 4 5
12 10 8 8 6 6 6 5 4 3 3 2 1 0 1 1 2 3 4 4 4 5 6 7 6 7 6 6 5 5 5 6 6 6 6 6 5 5 5 5 5 5 5 5
13 11 10 9 9 7 6 6 6 6 5 4 3 2 1 0 0 1 2 3 3 3 5 5 5 6 6 5 5 4 4 5 4 5 5 5 5 5 5 5 5 5 5 6
14 12 12 11 10 9 9 8 8 7 7 6 6 4 3 3 2 1 2 2 2 3 4 4 4 5 5 5 5 4 4 4 4 4 4 4 4 5 5 5 5 5 5 6
16 14 13 12 11 10 9 9 9 9 8 8 8 7 5 5 3 2 2 3 2 2 3 4 3 3 4 4 4 4 4 4 4 4 4 4 5 5 5 5 5 5 6 6
18 17 15 14 12 12 11 10 10 10 10 10 9 9 7 6 5 4 4 4 4 3 3 3 3 3 3 4 3 3 3 3 3 3 4 4 5 5 5 5 5 6 6 6
19 18 16 15 14 14 13 12 11 12 11 11 11 11 9 8 8 7 5 5 5 5 4 4 3 2 2 2 2 2 3 3 3 3 4 5 5 5 5 6 6 6 7 7
19 18 17 16 15 14 14 14 14 14 13 13 12 12 11 10 10 9 8 7 7 6 6 5 4 3 2 2 2 2 3 3 3 4 5 5 6 5 6 7 7 7 8 9
19 18 17 16 16 16 15 15 15 16 15 15 13 13 12 11 12 11 10 9 8 7 7 6 5 6 4 4 3 3 4 4 4 4 5 6 6 6 7 8 8 8 9 10
20 19 18 17 17 17 17 17 17 17 17 17 15 14 13 13 13 13 11 11 10 9 9 7 7 6 6 5 4 4 5 5 5 5 5 6 7 7 8 9 9 10 10 11
21 20 20 20 19 17 18 17 17 17 17 18 17 16 14 13 12 13 12 11 10 9 9 9 8 7 7 7 7 6 7 7 7 7 7 7 8 9 9 10 11 11 11 12
22 22 21 21 21 20 19 18 18 18 18 18 18 17 16 15 14 14 12 11 10 10 10 10 9 8 8 8 8 8 8 8 9 9 9 9 10 10 11 12 12 13 12 13
23 24 23 23 23 23 22 21 20 20 20 20 20 19 18 18 16 15 13 12 12 11 11 11 11 10 10 9 9 9 10 10 10 11 11 11 12 12 13 13 14 14 15 15
24 25 25 24 23 24 23 22 22 21 21 21 19 19 19 19 18 17 15 14 13 12 12 13 13 12 12 11 11 12 12 12 12 12 13 13 14 14 15 15 16 17 17 17
26 26 25 25 25 25 25 24 23 23 23 23 21 20 20 20 19 18 17 16 15 14 15 15 14 14 14 14 13 13 14 13 13 14 15 16 16 16 16 17 18 18 18 19
27 28 27 26 26 27 27 26 26 24 23 23 23 22 21 21 20 19 18 18 17 17 16 16 14 14 14 15 15 15 15 15 15 16 16 17 17 18 18 18 19 19 20 20
28 29 29 28 28 28 28 27 26 26 25 24 24 23 22 22 21 21 19 19 18 18 17 17 16 16 17 17 17 17 17 17 17 18 18 18 19 19 19 20 20 21 21 21
29 29 30 29 29 29 27 27 27 26 26 25 25 25 24 23 23 23 22 21 20 19 19 18 19 19 19 20 19 19 19 19 19 19 20 20 20 21 21 22 22 23 23 23
30 29 30 30 30 29 28 28 28 28 26 26 26 25 24 24 24 24 24 23 23 22 22 21 21 21 21 22 22 21 21 22 21 21 22 23 22 22 22 23 23 24 24 24
30 30 30 31 31 31 29 29 29 29 28 27 26 26 25 25 25 24 24 25 25 24 24 24 23 22 22 23 23 23 23 23 22 23 23 24 25 24 24 24 25 25 26 26
30 31 31 31 31 31 30 30 29 30 30 29 28 28 27 26 26 26 26 26 27 27 26 26 25 25 24 25 25 25 25 24 24 24 25 25 26 26 26 26 25 25 26 26
31 32 32 32 31 30 30 30 30 31 31 30 30 29 29 28 27 27 28 28 28 28 28 28 28 28 28 27 26 26 27 27 27 27 27 27 27 28 29 28 27 27 27 28
34 33 33 33 32 31 31 31 30 31 31 31 30 29 29 29 29 28 28 28 29 29 29 29 30 30 30 30 28 28 29 29 29 28 28 29 29 30 29 29 29 29 29 30
35 34 34 33 33 33 32 31 31 31 31 31 30 30 30 29 29 30 30 29 29 30 30 31 31 32 32 31 30 30 29 29 29 30 30 31 31 31 31 32 32 32 32 32
35 35 34 34 33 34 33 33 32 32 32 31 31 31 30 30 29 29 29 29 30 30 30 30 32 33 33 32 31 30 30 30 31 31 32 32 33 33 33 33 33 34 34 34
34 34 34 33 34 34 34 34 34 33 32 32 32 31 30 30 29 29 29 29 29 30 30 31 31 32 33 33 32 31 31 30 31 32 32 32 33 34 35 34 35 35 35 35
Wind_Direction
213 215 216 224 219 216 219 219 250 298 303 291 41 50 77 59 46 53 54 53 48 46 44 46 51 51 48 49 51 49 52 59 57 60 59 56 53 52 49 47 40 33 30 31
217 221 223 227 230 232 230 236 252 263 268 244 218 134 143 100 57 49 45 41 41 41 38 41 46 48 42 40 44 49 50 53 58 60 53 52 49 45 42 42 31 23 28 30
220 224 225 228 232 235 238 246 250 250 257 238 231 226 216 187 56 42 22 23 29 29 28 36 40 41 38 36 42 50 46 51 55 57 49 44 36 34 34 32 23 16 19 20
220 225 230 230 234 240 247 248 252 257 259 257 255 254 245 265 273 297 325 338 359 9 11 16 25 38 40 36 34 38 41 48 56 57 44 36 29 27 27 27 19 8 11 10
221 225 228 228 233 242 243 243 252 256 257 261 264 267 260 268 270 270 281 287 298 314 341 347 353 18 32 26 27 42 42 45 47 41 33 30 20 15 15 14 13 10 7 1
221 223 223 226 232 237 239 243 250 255 256 262 270 274 268 272 264 256 260 273 279 284 299 321 328 354 15 13 15 34 29 30 28 23 15 8 5 6 6 5 3 3 1 357
221 224 223 224 229 234 237 243 251 256 259 264 266 268 269 269 265 262 267 278 278 279 280 298 306 312 342 3 21 17 2 7 10 5 359 359 359 356 355 354 351 350 351 348
221 224 228 230 232 237 241 248 252 258 263 268 268 268 268 270 270 274 271 273 275 279 281 286 285 279 287 310 325 342 339 343 342 343 347 351 349 344 343 343 340 339 339 335
222 223 228 231 233 239 244 248 253 257 262 267 270 272 270 269 272 275 270 268 272 274 279 286 279 268 265 279 287 302 311 318 325 325 329 332 333 332 332 332 332 331 330 328
226 226 227 230 234 239 243 246 253 257 263 266 269 273 277 273 274 272 273 271 268 271 272 272 280 268 263 267 283 290 297 300 305 306 311 318 320 322 327 324 322 322 324 322
227 229 228 232 235 240 244 246 253 258 262 268 269 273 276 279 279 276 274 274 273 269 269 270 274 266 265 273 276 293 296 293 298 302 303 305 310 314 312 316 316 315 314 314
228 231 231 233 237 240 243 246 252 258 264 267 270 271 271 276 278 279 277 274 271 270 269 266 269 273 276 283 285 293 295 292 290 291 296 301 303 306 307 310 312 312 312 309
231 234 235 235 237 240 243 247 253 258 262 266 269 269 267 271 273 275 274 271 269 273 274 273 272 276 279 283 286 288 290 290 288 287 289 296 300 302 303 306 307 307 307 307
236 238 239 240 240 242 243 246 251 255 260 265 269 271 268 268 268 268 269 270 271 276 277 275 273 274 275 278 280 282 284 288 288 286 287 292 295 297 300 304 305 306 306 306
238 240 241 242 242 242 243 246 250 254 259 263 266 269 270 267 265 266 265 267 272 276 281 280 273 272 272 274 276 279 282 282 284 285 287 291 293 295 298 300 301 301 303 305
242 243 243 245 247 246 245 246 249 253 256 260 263 266 267 266 263 263 264 268 272 275 277 277 275 270 271 272 273 277 279 278 280 284 288 290 293 295 296 298 298 299 300 302
243 246 247 248 250 250 250 249 249 252 256 260 263 265 265 264 262 260 262 265 268 271 273 272 272 272 268 269 271 275 276 277 281 284 288 291 291 292 294 296 296 297 297 298
245 247 249 251 251 252 253 252 252 254 257 260 262 263 264 263 262 261 261 262 265 269 271 270 270 272 271 270 272 275 276 277 279 283 285 287 287 288 290 292 293 294 294 295
246 248 250 252 254 254 253 254 253 254 256 258 260 262 263 261 260 260 260 262 265 268 271 272 271 270 272 274 274 275 278 278 280 282 284 286 287 288 289 290 291 293 295 295
249 251 253 255 256 256 255 255 253 254 255 256 258 259 261 262 260 259 260 261 264 267 270 271 271 270 271 273 274 275 278 279 279 282 284 285 286 286 287 288 290 292 294 295
251 254 255 257 259 259 256 255 254 254 255 256 258 259 260 261 261 259 258 260 262 264 267 270 272 271 272 274 275 276 277 280 281 282 283 284 284 285 285 286 289 290 293 294
252 254 255 257 258 259 256 256 255 255 254 256 258 259 260 260 260 261 261 261 262 264 266 267 270 272 273 274 273 275 276 278 281 282 282 282 282 283 285 286 288 289 291 292
252 254 255 257 259 260 259 258 258 257 256 256 258 260 261 261 261 262 262 261 261 262 264 265 267 269 271 273 272 274 276 278 280 281 283 282 283 283 286 286 288 289 290 291
253 254 255 256 257 258 259 259 258 257 257 256 257 258 259 260 262 263 262 263 261 262 263 265 266 268 270 271 271 272 274 276 279 280 283 282 282 284 284 286 287 288 290 291
254 255 255 256 256 258 258 258 259 259 257 256 256 257 258 260 261 262 262 264 264 264 265 266 268 269 270 272 269 270 273 276 279 281 282 283 282 283 284 284 285 287 290 290
255 255 256 257 257 258 258 258 258 258 257 255 255 256 256 258 260 261 262 264 267 267 266 268 270 270 270 269 269 271 273 277 279 281 282 283 284 285 285 284 285 288 289 290
Height
5902 5904 5904 5905 5905 5906 5905 5906 5906 5906 5906 5906 5906 5906 5907 5906 5906 5906 5905 5904 5904 5903 5902 5901 5900 5899 5898 5897 5897 5896 5895 5894 5894 5894 5893 5893 5892 5892 5891 5891 5890 5890 5889 5889
5902 5903 5904 5904 5904 5905 5905 5906 5906 5906 5906 5906 5906 5907 5907 5907 5907 5907 5906 5905 5905 5904 5903 5902 5901 5900 5899 5898 5897 5897 5896 5895 5895 5895 5894 5894 5893 5893 5892 5892 5891 5890 5889 5889
5900 5902 5902 5903 5903 5904 5905 5905 5906 5906 5906 5906 5907 5907 5907 5907 5907 5907 5906 5906 5905 5904 5903 5902 5901 5900 5899 5898 5898 5897 5896 5896 5895 5895 5894 5894 5894 5893 5893 5892 5891 5891 5890 5889
5898 5899 5900 5901 5903 5904 5904 5905 5905 5905 5905 5905 5907 5907 5908 5907 5907 5907 5907 5906 5905 5904 5903 5902 5901 5900 5899 5898 5898 5897 5897 5896 5895 5895 5895 5894 5894 5893 5893 5892 5891 5891 5890 5889
5895 5897 5898 5900 5902 5903 5903 5903 5904 5904 5904 5905 5905 5906 5908 5907 5907 5907 5906 5906 5905 5904 5903 5902 5901 5900 5899 5899 5898 5897 5897 5896 5896 5895 5895 5894 5894 5893 5892 5891 5891 5890 5889 5888
5893 5895 5896 5898 5900 5901 5902 5902 5903 5903 5903 5904 5904 5905 5906 5905 5906 5906 5906 5905 5904 5904 5903 5902 5901 5900 5899 5898 5898 5897 5897 5896 5896 5895 5895 5894 5894 5893 5892 5891 5890 5889 5889 5888
5890 5892 5894 5896 5897 5899 5900 5901 5902 5901 5902 5902 5903 5902 5904 5904 5904 5904 5904 5904 5903 5903 5902 5901 5901 5900 5899 5898 5897 5897 5896 5896 5895 5895 5894 5894 5893 5892 5892 5891 5890 5889 5888 5887
5887 5890 5891 5893 5895 5896 5897 5899 5900 5900 5900 5901 5901 5900 5903 5903 5903 5903 5903 5902 5902 5902 5901 5900 5899 5899 5898 5897 5897 5896 5896 5895 5895 5895 5894 5893 5893 5892 5891 5890 5889 5888 5887 5886
5884 5887 5889 5890 5892 5893 5894 5895 5897 5897 5897 5898 5898 5899 5900 5901 5901 5901 5901 5901 5900 5900 5900 5899 5898 5898 5897 5897 5896 5896 5895 5895 5894 5894 5893 5893 5892 5891 5890 5889 5888 5887 5886 5885
5880 5883 5886 5887 5888 5890 5891 5892 5894 5894 5894 5895 5896 5896 5897 5898 5899 5899 5899 5899 5899 5898 5898 5897 5897 5897 5896 5896 5895 5895 5894 5894 5893 5893 5892 5891 5891 5890 5889 5888 5887 5886 5884 5883
5877 5880 5883 5884 5885 5886 5888 5889 5890 5891 5891 5892 5892 5896 5895 5895 5896 5896 5896 5896 5896 5896 5896 5895 5895 5895 5894 5894 5894 5893 5892 5892 5891 5891 5891 5890 5889 5888 5887 5886 5885 5883 5882 5881
5873 5876 5878 5880 5882 5882 5884 5885 5887 5888 5889 5889 5889 5894 5892 5893 5893 5893 5893 5893 5893 5893 5893 5893 5893 5893 5892 5892 5892 5891 5890 5890 5889 5889 5889 5888 5887 5886 5885 5883 5882 5881 5879 5878
5868 5871 5874 5876 5879 5880 5880 5882 5883 5884 5885 5885 5886 5890 5889 5889 5890 5890 5891 5891 5891 5891 5890 5890 5890 5890 5890 5890 5889 5889 5888 5888 5887 5887 5886 5885 5884 5883 5882 5880 5879 5878 5876 5874
5864 5866 5869 5872 5873 5875 5876 5878 5879 5880 5881 5881 5882 5884 5885 5885 5886 5887 5887 5888 5888 5888 5887 5887 5887 5887 5887 5887 5886 5886 5885 5885 5884 5884 5883 5882 5881 5880 5878 5877 5876 5874 5872 5870
5859 5861 5863 5866 5868 5869 5871 5873 5874 5875 5876 5877 5878 5879 5880 5881 5882 5883 5883 5884 5884 5885 5885 5884 5884 5883 5883 5883 5883 5882 5882 5882 5881 5880 5880 5879 5877 5876 5875 5873 5872 5870 5868 5866
5853 5855 5857 5860 5862 5863 5865 5868 5869 5870 5871 5872 5873 5874 5875 5876 5877 5878 5879 5880 5880 5881 5881 5880 5880 5880 5879 5879 5879 5878 5878 5877 5877 5876 5875 5874 5873 5872 5870 5869 5867 5866 5864 5862
5847 5850 5852 5854 5856 5857 5859 5862 5863 5865 5866 5867 5868 5870 5870 5871 5872 5873 5874 5875 5876 5876 5876 5876 5875 5875 5875 5874 5874 5874 5873 5873 5872 5871 5870 5869 5868 5867 5866 5864 5863 5861 5859 5857
5841 5843 5845 5847 5850 5851 5856 5856 5857 5859 5860 5861 5862 5863 5864 5865 5866 5867 5869 5870 5870 5871 5871 5871 5871 5870 5870 5869 5869 5869 5868 5868 5867 5866 5865 5863 5862 5861 5860 5859 5857 5855 5854 5851
5835 5837 5838 5840 5841 5844 5848 5849 5850 5852 5853 5855 5856 5857 5858 5859 5860 5861 5862 5863 5864 5864 5865 5865 5864 5864 5864 5864 5863 5863 5862 5862 5861 5860 5859 5858 5856 5855 5854 5853 5851 5849 5847 5845
5828 5830 5832 5833 5834 5837 5841 5842 5842 5845 5846 5848 5849 5850 5852 5853 5854 5856 5856 5857 5857 5858 5858 5858 5857 5858 5858 5858 5857 5857 5856 5855 5855 5854 5852 5851 5850 5849 5847 5846 5844 5842 5840 5838
5821 5822 5824 5826 5827 5829 5833 5833 5836 5838 5840 5841 5842 5843 5845 5846 5848 5849 5849 5850 5851 5851 5851 5851 5851 5851 5850 5850 5850 5850 5849 5849 5848 5847 5845 5844 5843 5841 5840 5839 5837 5835 5833 5831
5813 5815 5817 5818 5820 5824 5824 5825 5828 5830 5831 5832 5834 5835 5837 5838 5840 5841 5842 5842 5843 5843 5844 5844 5844 5843 5843 5842 5842 5842 5841 5841 5840 5839 5838 5837 5835 5834 5832 5831 5829 5827 5825 5823
5805 5808 5809 5812 5815 5815 5816 5818 5820 5821 5823 5824 5826 5827 5829 5831 5832 5833 5833 5834 5835 5835 5836 5836 5836 5835 5835 5834 5833 5834 5833 5832 5832 5831 5830 5828 5827 5826 5825 5823 5821 5820 5817 5815
5797 5799 5801 5803 5805 5806 5808 5810 5812 5813 5815 5816 5818 5819 5821 5822 5824 5824 5825 5825 5826 5826 5827 5827 5827 5827 5826 5826 5825 5825 5824 5824 5823 5822 5821 5820 5819 5818 5816 5815 5813 5811 5809 5807
5787 5790 5792 5794 5796 5798 5800 5801 5803 5804 5806 5808 5809 5811 5812 5814 5815 5815 5816 5816 5817 5817 5817 5817 5817 5817 5817 5817 5817 5816 5816 5816 5815 5814 5813 5811 5810 5809 5807 5806 5804 5802 5800 5798
5779 5781 5784 5786 5788 5789 5791 5792 5794 5795 5797 5799 5800 5802 5803 5804 5806 5806 5807 5807 5808 5808 5808 5807 5808 5808 5808 5808 5808 5808 5807 5806 5806 5805 5804 5802 5801 5799 5798 5796 5794 5792 5790 5788